Location: 3 Angels Observatory
(30.5437°N, 88.5068°W)
Time: 13:47:42
(UTC-06:00)

Daily predictions for brighter satellites

Satellite Brightness Start Highest point End
(mag) Time Altitude Azimuth Time Altitude Azimuth Time Altitude Azimuth
ATLAS 5 CENTAUR R/B 4.3 17:15:05 10° WSW 17:20:36 40° S 17:46:54 10° ESE
Cosmos 2279 Rocket 4.4 17:37:24 10° NNE 17:43:10 39° E 17:48:54 10° SSE
IDEFIX/ARIANE 42P 3.3 17:41:32 10° S 17:46:39 60° W 17:51:50 10° NNW
Cosmos 2333 Rocket 3.3 17:41:30 10° SW 17:46:53 46° WNW 17:52:19 10° N
Cosmos 2219 Rocket 3.8 17:43:07 10° SW 17:48:12 34° WNW 17:53:17 10° N
Centaur AC-119 3.2 17:47:03 10° SSW 17:48:36 20° SSE 17:50:56 10° ESE
Cosmos 1626 3.3 17:48:13 10° SE 17:51:16 24° E 17:54:20 10° NE
MONITOR-E 4.1 17:51:04 10° SSE 17:54:12 69° ENE 17:57:21 10° N
Milstar 3 3.2 17:48:26 10° W 17:55:21 61° SSW 18:02:17 10° ESE
SJ-6B 4.3 17:53:41 10° ESE 17:56:26 18° ENE 17:59:11 10° NNE
Aureole 2 Rocket 3.1 17:53:24 10° SSW 17:56:56 63° WNW 18:00:48 10° N
Cosmos 1703 3.5 17:55:50 10° SSE 17:59:32 45° E 18:03:15 10° NNE
Cosmos 1151 Rocket 3.0 17:56:48 10° N 18:01:06 86° W 18:05:24 10° S
SMAP 4.5 17:58:02 10° S 18:02:26 43° W 18:06:53 10° NNW
Cosmos 2278 Rocket 2.2 17:59:18 10° NNW 18:04:58 71° ENE 18:10:36 10° SSE
Cosmos 1805 Rocket 3.6 18:01:06 10° S 18:05:28 58° E 18:09:51 10° NNE
EPKM 4.5 18:00:05 10° WSW 18:08:42 37° S 18:11:20 10° ESE
Cosmos 1455 3.5 18:06:01 10° NNE 18:08:46 19° ENE 18:11:31 10° SE
SKYMED 2 4.1 18:06:42 10° N 18:10:59 62° WNW 18:15:15 10° SSW
Cosmos 1726 2.9 18:08:43 10° NNW 18:12:26 57° W 18:16:07 10° S
Cosmos 773 Rocket 4.4 18:09:16 10° S 18:14:01 40° E 18:18:52 10° NNE
Cosmos 372 Rocket 3.8 18:10:55 10° NNW 18:16:01 78° ENE 18:21:07 10° SSE
FREGAT/IRIS 3.7 18:14:01 10° SE 18:16:30 23° ENE 18:19:01 10° NNE
Helios 1B rocket 4.5 18:20:03 12° ESE 18:20:03 12° ESE 18:20:40 10° SE
Atlas Centaur 2 4.2 18:16:32 10° WSW 18:20:18 19° SSW 18:23:34 10° SSE
Meteor 1-27 4.3 18:16:26 10° N 18:22:17 90° W 18:28:07 10° S
Sich 1 3.1 18:18:30 10° S 18:22:51 58° E 18:27:13 10° NNE
Cosmos 2237 Rocket 4.1 18:18:42 10° WSW 18:23:30 29° WNW 18:28:20 10° N
Cosmos 1340 Rocket 3.7 18:19:56 10° SSW 18:23:45 49° W 18:27:34 10° N
USA 215 4.0 18:21:36 16° E 18:25:43 31° NE 18:31:17 10° NNW
Cosmos 1484 Rocket 4.2 18:23:50 10° S 18:27:31 42° W 18:31:18 10° NNW
Cosmos 1300 4.5 18:24:44 10° NNW 18:28:14 35° W 18:31:44 10° SSW
Cosmos 1461 4.2 18:25:05 10° SW 18:29:04 39° WNW 18:32:56 10° N
SL-16 R/B 2.6 18:24:38 10° SSW 18:30:13 65° WNW 18:35:51 10° NNE
Cosmos 1633 Rocket 3.0 18:25:58 10° S 18:30:19 61° E 18:34:40 10° NNE
Delta 2 Rocket 4.4 18:34:16 10° SSW 18:36:54 22° SSE 18:37:20 21° SE
Cosmos 2297 3.6 18:41:55 10° NNW 18:47:39 75° ENE 18:53:22 10° SSE
Hubble Space Telescope 3.8 18:47:46 10° SW 18:48:22 10° SSW 18:48:59 10° SSW
Cosmos 1356 Rocket 4.3 18:46:04 10° SSW 18:49:55 47° W 18:53:46 10° N
OTV 4 1.1 18:47:44 10° WNW 18:50:36 49° SSW 18:50:55 46° S
Coronas F rocket 2.9 18:53:26 10° SSW 18:54:53 29° SW 18:54:53 29° SW
Aureole 1 Rocket 3.7 18:52:48 10° SSW 18:57:36 77° WNW 19:04:05 10° NNE
Cosmos 1900 4.2 18:54:08 10° NNW 18:59:06 70° ENE 19:01:59 25° SE
Cosmos 1707 Rocket 4.1 18:55:46 10° NNW 19:00:01 59° W 19:04:17 10° S
CZ-3A R/B 3.4 18:56:04 10° NNW 19:00:28 41° NE 19:01:30 37° ENE
Spot 2 Rocket 3.5 18:55:39 10° SSE 19:00:33 53° ENE 19:05:27 10° N
Resurs 01 Rocket 3.0 18:57:09 10° SSE 19:03:50 26° N 19:05:50 10° N
FENGYUN 3A 3.5 19:00:34 10° SSE 19:05:51 66° ENE 19:11:11 10° N
Cosmos 1655 Rocket 4.3 19:00:13 10° SSE 19:06:12 44° E 19:06:21 44° E
USA 229 DEB 4.0 19:00:21 10° SW 19:07:08 67° WNW 19:12:13 19° NNE
USA 229 3.9 19:00:27 10° SW 19:07:14 68° WNW 19:12:17 20° NNE
Lacrosse 5 rocket 1.8 19:05:44 10° NW 19:09:34 58° SW 19:10:49 38° S
Tiangong 1 2.7 19:06:57 10° WSW 19:08:40 31° WSW 19:08:40 31° WSW
Cosmos 1943 4.0 19:04:50 10° S 19:08:34 33° SE 19:08:34 33° SE
Cosmos 1627 Rocket 4.3 19:08:39 10° S 19:14:49 71° E 19:18:21 27° NNE
Cosmos 1933 Rocket 3.5 19:11:45 10° S 19:16:10 87° W 19:16:13 86° WNW
Iridium 4 Rocket 3.6 19:11:42 10° S 19:16:20 60° W 19:19:41 16° N
NOSS 3-1 (A) 4.2 19:16:02 10° S 19:19:22 31° SSE 19:19:22 31° SSE
ALOS 2.3 19:16:53 10° S 19:21:33 77° W 19:26:14 10° NNW
Cosmos 923 Rocket 4.4 19:17:16 10° SSW 19:22:24 59° WNW 19:24:48 31° N
FengYun 1-2 T 4.3 19:19:11 10° S 19:24:45 77° WSW 19:30:18 10° NNW
Cosmos 1680 Rocket 3.7 19:24:29 10° SSW 19:29:39 68° WNW 19:30:32 57° NNW
Cosmos 1603 4.4 19:29:22 10° SW 19:34:48 50° WNW 19:36:59 33° NNW
Intelsat 5-1 Rocket 3.8 19:35:42 10° WSW 19:38:07 27° SSW 19:38:07 27° SSW
Cosmos 2026 Rocket 4.1 19:39:47 10° SSW 19:46:00 69° W 19:47:46 47° NNW
NOSS 3-1 (C) 4.0 19:54:21 10° SW 19:58:31 49° WSW 19:58:31 49° WSW
USA 215 3.6 20:08:59 62° W 20:08:59 62° W 20:14:51 10° NW
